[[{"header":{"parameterUnit":"m.s-1","parameterCategory":1,"la1":30.2991,"la2":30.254,"lo1":-89.0895,"lo2":-89.0444,"dy":0.0017,"dx":0.0017,"nx":28,"ny":28,"refTime":"2025-03-01T03:00:00:Z","depth":0,"parameterNumber":2,"parameterNumberName":"U-component_of_WINDS"},"data":[0,0,0,0,0,0,0,0,0,0,0,0,0,0,0,0,0,0,0,0,0,0,0,0,0,0,0,0,0,0,0,0,0,0,0,0,0,0,0,0,0,0,0,0,0,0,0,0,0,0,0,0,0,0,0,0,0,0,1.565,1.565,0,1.571,1.5711,1.5711,1.5724,1.5723,1.5723,1.5723,1.5784,1.5786,1.5788,0,0,0,0,0,0,0,0,0,0,0,0,0,1.5544,1.5546,1.5649,1.565,1.5651,1.571,1.5711,1.5712,1.5724,1.5723,1.5723,1.5722,1.5783,1.5786,1.5788,0,0,0,0,0,0,0,0,0,0,0,0,0,1.5596,1.5547,1.5649,1.5664,1.5666,1.571,1.5711,1.5712,1.5724,1.5723,1.5723,1.5722,1.5783,1.5786,1.5789,1.5821,0,0,1.5798,1.5799,0,0,0,0,0,0,0,0,1.5593,1.56,1.5661,1.5663,1.5666,1.5709,1.5696,1.5749,1.5724,1.5702,1.5723,1.5722,1.576,1.5764,1.5777,1.5824,1.5827,1.5798,1.58,1.5802,1.5802,0,0,0,0,0,0,0,1.5589,1.5597,1.5673,1.5662,1.5665,1.5668,1.5674,1.5706,1.5734,1.5704,1.5705,1.5712,1.5761,1.5774,1.5779,1.5828,1.5798,1.5801,1.5803,1.5804,1.5905,1.5906,0,0,0,0,0,0,1.5583,1.5594,1.5671,1.5675,1.5627,1.567,1.5678,1.5696,1.5734,1.5739,1.5713,1.5712,1.5769,1.5775,1.5781,1.5822,1.5802,1.5804,1.5806,1.5904,1.5905,1.5906,0,0,0,0,0,0,1.5581,1.559,1.5669,1.5635,1.5645,1.5673,1.5693,1.5697,1.5711,1.574,1.5745,1.5722,1.5769,1.5777,1.5811,1.5824,1.5806,1.5809,1.5903,1.5904,1.5906,1.5904,0,0,0,0,0,0,1.5578,1.5589,1.5602,1.5635,1.5647,1.5698,1.5694,1.5699,1.5716,1.5717,1.575,1.5755,1.5769,1.5807,1.5814,1.5828,1.5811,1.5902,1.5904,1.5905,1.5903,1.5905,1.5907,0,0,0,0,0,1.5574,1.5599,1.5602,1.5612,1.5664,1.5699,1.5706,1.5722,1.5717,1.573,1.5749,1.5754,1.5822,1.581,1.5819,1.5834,1.5901,1.5903,1.5905,1.5902,1.5905,1.5907,0,0,0,0,0,0,1.5566,1.5603,1.5608,1.5644,1.5668,1.5701,1.5718,1.5724,1.575,1.5749,1.5768,1.5776,1.5809,1.5825,1.5812,1.5868,1.5861,1.5865,1.5856,1.5859,1.5861,1.5856,1.5814,0,0,0,0,0,1.5568,1.5594,1.5626,1.5655,1.5667,1.569,1.5706,1.5717,1.5743,1.5753,1.5774,1.5799,1.5826,1.5843,1.587,1.5906,1.5913,1.592,1.5922,1.5924,1.5926,1.5947,1.595,1.5912,1.5912,1.5912,0,0,1.5574,1.5597,1.5613,1.5654,1.5674,1.57,1.5699,1.5726,1.5746,1.5757,1.5791,1.5808,1.5836,1.5872,1.5889,1.5886,1.5939,1.5926,1.5927,1.5929,1.5949,1.5953,1.5956,1.5913,1.5913,1.5913,0,0,1.5597,1.5617,1.5644,1.5664,1.5694,1.571,1.5716,1.5749,1.576,1.5795,1.5803,1.5827,1.5873,1.5893,1.591,1.5941,1.5946,1.5949,1.5959,1.5978,1.5981,1.5984,1.5995,1.5999,1.5952,1.5952,1.5952,0,1.5599,1.5639,1.5657,1.5684,1.5702,1.5713,1.574,1.5759,1.5796,1.5809,1.5805,1.5864,1.5884,1.5924,1.5932,1.5945,1.5953,1.5945,1.598,1.5982,1.5985,1.5996,1.6,1.5952,1.5952,1.5952,1.5952,0,1.5641,1.5669,1.5687,1.5723,1.5743,1.577,1.5791,1.5809,1.5818,1.5834,1.5869,1.5894,1.5926,1.5936,1.5945,1.5978,1.5976,1.5976,1.597,1.5989,1.5999,1.6004,1.5952,1.5952,1.5952,1.5952,0,0,1.5661,1.5706,1.5712,1.5729,1.5764,1.5785,1.5813,1.5844,1.5859,1.5885,1.5909,1.5948,1.5948,1.5967,1.5978,1.5995,1.6018,1.5993,1.5994,1.5997,1.6056,1.6056,1.606,1.6022,1.6023,1.6024,1.6054,0,1.5688,1.5738,1.5754,1.5796,1.5821,1.5833,1.5857,1.5881,1.5896,1.5921,1.5938,1.5965,1.5964,1.5975,1.5993,1.6012,1.6031,1.601,1.6044,1.6045,1.6036,1.6066,1.6065,1.6093,1.6058,1.6059,1.6059,0,1.5726,1.5752,1.5796,1.5828,1.584,1.5861,1.5891,1.5914,1.5941,1.5952,1.5973,1.5983,1.6012,1.6004,1.6045,1.6031,1.6046,1.6057,1.6059,1.6062,1.6053,1.607,1.6102,1.6106,1.6066,1.6066,1.6065,0,1.5736,1.5782,1.5815,1.5828,1.5866,1.5881,1.5897,1.5924,1.5942,1.5968,1.598,1.6009,1.6025,1.6048,1.6066,1.6059,1.6105,1.6099,1.6114,1.6114,1.6123,1.6122,1.6157,1.6133,1.6133,1.6133,1.6133,0,1.5764,1.5791,1.5819,1.5839,1.5869,1.5888,1.5917,1.5934,1.5958,1.5982,1.5993,1.6015,1.6037,1.6062,1.6076,1.6107,1.6115,1.6124,1.6127,1.6123,1.6121,1.6132,1.6131,1.6134,1.6134,1.6134,1.6134,0,1.578,1.58,1.5836,1.5869,1.5878,1.5899,1.5927,1.5947,1.5963,1.5992,1.6,1.6026,1.6056,1.6076,1.6114,1.6123,1.6158,1.6161,1.6148,1.615,1.6164,1.6162,1.6208,1.6214,1.6186,1.6186,1.6186,0,1.5796,1.5817,1.5852,1.5869,1.5885,1.5912,1.593,1.595,1.5968,1.6001,1.6017,1.6048,1.6073,1.612,1.6142,1.6171,1.6175,1.6189,1.6179,1.6174,1.6175,1.6173,1.6175,1.619,1.619,1.619,1.619,0,1.5824,1.5833,1.5859,1.5889,1.5911,1.5935,1.5959,1.5972,1.5996,1.6016,1.6047,1.6067,1.6106,1.6136,1.6167,1.6184,1.6191,1.6193,1.6198,1.6194,1.6186,1.619,1.6152,1.6192,1.6192,1.6192,1.6192,1.6192,1.5841,1.586,1.5887,1.5916,1.5937,1.5959,1.5979,1.5999,1.6024,1.6058,1.6068,1.6099,1.6126,1.6169,1.6187,1.6212,1.621,1.6218,1.622,1.6221,1.6221,1.6182,1.6218,1.6218,1.6218,1.6218,1.6218,0,1.5869,1.5887,1.5914,1.5947,1.597,1.5975,1.6003,1.6021,1.6049,1.6074,1.6099,1.6134,1.6163,1.6188,1.6218,1.6233,1.6237,1.6241,1.624,1.6243,1.6221,1.6213,1.6237,1.6237,1.6237,1.6237,1.6237,1.6237,1.5886,1.5918,1.5931,1.5974,1.5992,1.6023,1.6038,1.6059,1.6079,1.6118,1.6142,1.6158,1.6183,1.6215,1.6242,1.6249,1.6259,1.6262,1.6269,1.6247,1.6245,1.6243,1.6236,1.6264,1.6264,1.629,1.629,1.629]},{"header":{"parameterUnit":"m.s-1","parameterCategory":1,"la1":30.2991,"la2":30.254,"lo1":-89.0895,"lo2":-89.0444,"dy":0.0017,"dx":0.0017,"nx":28,"ny":28,"refTime":"2025-03-01T03:00:00:Z","depth":0,"parameterNumber":3,"parameterNumberName":"V-component_of_WINDS"},"data":[0,0,0,0,0,0,0,0,0,0,0,0,0,0,0,0,0,0,0,0,0,0,0,0,0,0,0,0,0,0,0,0,0,0,0,0,0,0,0,0,0,0,0,0,0,0,0,0,0,0,0,0,0,0,0,0,0,0,-0.6363,-0.6363,0,-0.6352,-0.6351,-0.6351,-0.6336,-0.6336,-0.6336,-0.6335,-0.6324,-0.6324,-0.6324,0,0,0,0,0,0,0,0,0,0,0,0,0,-0.6371,-0.6371,-0.6363,-0.6363,-0.6362,-0.6352,-0.6351,-0.6351,-0.6336,-0.6336,-0.6336,-0.6335,-0.6324,-0.6324,-0.6324,0,0,0,0,0,0,0,0,0,0,0,0,0,-0.6364,-0.6371,-0.6363,-0.6354,-0.6353,-0.6352,-0.6351,-0.6351,-0.6336,-0.6336,-0.6335,-0.6335,-0.6324,-0.6324,-0.6324,-0.6331,0,0,-0.6323,-0.6323,0,0,0,0,0,0,0,0,-0.6365,-0.6364,-0.6355,-0.6354,-0.6353,-0.6345,-0.635,-0.6344,-0.6336,-0.6342,-0.6335,-0.6335,-0.6331,-0.633,-0.6329,-0.633,-0.633,-0.6323,-0.6323,-0.6323,-0.6323,0,0,0,0,0,0,0,-0.6365,-0.6365,-0.6358,-0.6355,-0.6354,-0.635,-0.6349,-0.6349,-0.6339,-0.6342,-0.6341,-0.634,-0.6331,-0.6329,-0.6329,-0.6329,-0.6323,-0.6323,-0.6323,-0.6323,-0.6336,-0.6336,0,0,0,0,0,0,-0.6367,-0.6365,-0.6359,-0.6358,-0.6358,-0.635,-0.6349,-0.6348,-0.6339,-0.6337,-0.634,-0.6339,-0.633,-0.6329,-0.6328,-0.6336,-0.6323,-0.6323,-0.6323,-0.6335,-0.6336,-0.6336,0,0,0,0,0,0,-0.6367,-0.6367,-0.6359,-0.6361,-0.636,-0.6351,-0.635,-0.6348,-0.6347,-0.6338,-0.6336,-0.634,-0.6329,-0.6328,-0.633,-0.6335,-0.6323,-0.6323,-0.6335,-0.6336,-0.6336,-0.6351,0,0,0,0,0,0,-0.6368,-0.6367,-0.6369,-0.6361,-0.636,-0.6361,-0.635,-0.6348,-0.6346,-0.6345,-0.6338,-0.6336,-0.6329,-0.633,-0.633,-0.6335,-0.6323,-0.6334,-0.6335,-0.6336,-0.635,-0.6352,-0.6354,0,0,0,0,0,-0.6368,-0.6374,-0.637,-0.6369,-0.6363,-0.6361,-0.6361,-0.6352,-0.6347,-0.6349,-0.6344,-0.6336,-0.6335,-0.6331,-0.633,-0.6335,-0.6334,-0.6335,-0.6336,-0.6349,-0.6352,-0.6354,0,0,0,0,0,0,-0.6382,-0.6373,-0.6368,-0.6371,-0.6367,-0.6359,-0.6362,-0.6355,-0.6353,-0.6352,-0.6342,-0.634,-0.6343,-0.6339,-0.6335,-0.6341,-0.6333,-0.6334,-0.6344,-0.6346,-0.6348,-0.6348,-0.6323,0,0,0,0,0,-0.6386,-0.6386,-0.6377,-0.6381,-0.6379,-0.6371,-0.637,-0.6364,-0.636,-0.6358,-0.6352,-0.6348,-0.6347,-0.6346,-0.6345,-0.635,-0.6348,-0.6353,-0.6355,-0.6356,-0.6357,-0.6359,-0.6361,-0.6339,-0.6339,-0.6339,0,0,-0.6393,-0.6388,-0.6388,-0.6384,-0.638,-0.638,-0.637,-0.637,-0.637,-0.6358,-0.6359,-0.6355,-0.635,-0.6354,-0.6355,-0.6351,-0.6363,-0.6357,-0.6359,-0.6358,-0.6361,-0.6363,-0.6364,-0.634,-0.634,-0.634,0,0,-0.6407,-0.6403,-0.6405,-0.6402,-0.6397,-0.6391,-0.6392,-0.6385,-0.6381,-0.6383,-0.6374,-0.6374,-0.6372,-0.6368,-0.6367,-0.638,-0.6373,-0.6379,-0.6389,-0.6391,-0.6393,-0.6395,-0.6399,-0.6401,-0.638,-0.638,-0.638,0,-0.6416,-0.6416,-0.6408,-0.6409,-0.6407,-0.6397,-0.6399,-0.6397,-0.6391,-0.639,-0.6386,-0.6383,-0.6379,-0.6381,-0.6385,-0.6383,-0.6384,-0.638,-0.6394,-0.6395,-0.6396,-0.64,-0.6402,-0.6381,-0.6381,-0.6381,-0.6381,0,-0.6428,-0.6428,-0.6431,-0.6426,-0.6425,-0.6427,-0.6419,-0.6419,-0.6413,-0.6408,-0.641,-0.6404,-0.6402,-0.6402,-0.6396,-0.6404,-0.6401,-0.6395,-0.6387,-0.6399,-0.6403,-0.6405,-0.6382,-0.6382,-0.6382,-0.6381,0,0,-0.645,-0.644,-0.6442,-0.6439,-0.6433,-0.6433,-0.6434,-0.6432,-0.6432,-0.6429,-0.643,-0.6428,-0.6423,-0.6421,-0.6415,-0.6417,-0.6428,-0.6411,-0.6411,-0.6414,-0.6436,-0.644,-0.6442,-0.6424,-0.6424,-0.6424,-0.6436,0,-0.6461,-0.6463,-0.6456,-0.646,-0.646,-0.6451,-0.6452,-0.6449,-0.6444,-0.6444,-0.6439,-0.6438,-0.6431,-0.643,-0.6432,-0.6426,-0.6432,-0.6425,-0.6425,-0.6425,-0.6426,-0.6444,-0.6449,-0.646,-0.6438,-0.6438,-0.6438,0,-0.6475,-0.6473,-0.6477,-0.6471,-0.647,-0.6472,-0.6469,-0.6469,-0.6464,-0.6461,-0.6459,-0.6453,-0.6454,-0.6446,-0.6448,-0.6444,-0.6443,-0.6441,-0.6441,-0.644,-0.6432,-0.6444,-0.6464,-0.6465,-0.644,-0.644,-0.644,0,-0.649,-0.6488,-0.649,-0.6489,-0.6481,-0.6483,-0.648,-0.6475,-0.6474,-0.6472,-0.6471,-0.6469,-0.6468,-0.6467,-0.646,-0.6455,-0.6462,-0.6454,-0.646,-0.646,-0.6461,-0.6461,-0.6481,-0.6461,-0.6461,-0.6461,-0.6461,0,-0.6504,-0.6507,-0.6497,-0.6498,-0.6501,-0.6493,-0.6496,-0.6493,-0.6489,-0.6489,-0.6481,-0.6482,-0.6473,-0.6473,-0.6467,-0.647,-0.6469,-0.6467,-0.6465,-0.6467,-0.6467,-0.6466,-0.6465,-0.6462,-0.6462,-0.6462,-0.6462,0,-0.6521,-0.6514,-0.6516,-0.6509,-0.6508,-0.651,-0.6505,-0.6506,-0.6501,-0.6502,-0.6501,-0.6494,-0.6494,-0.6487,-0.6485,-0.6481,-0.6485,-0.6482,-0.6487,-0.6486,-0.6491,-0.6491,-0.6511,-0.6513,-0.6492,-0.6493,-0.6493,0,-0.653,-0.6532,-0.6525,-0.6525,-0.6523,-0.6522,-0.6521,-0.6514,-0.6513,-0.6509,-0.6511,-0.6509,-0.6508,-0.6507,-0.6502,-0.65,-0.6497,-0.6504,-0.6497,-0.6499,-0.6497,-0.6497,-0.6497,-0.6506,-0.6506,-0.6506,-0.6507,0,-0.6546,-0.6543,-0.6542,-0.654,-0.6539,-0.6537,-0.6535,-0.6535,-0.6527,-0.6526,-0.6526,-0.6525,-0.6523,-0.6522,-0.6519,-0.6516,-0.651,-0.6509,-0.651,-0.6512,-0.6515,-0.6513,-0.6491,-0.6509,-0.6508,-0.6508,-0.6508,-0.6508,-0.6559,-0.656,-0.6556,-0.6556,-0.6553,-0.6551,-0.6552,-0.6547,-0.6547,-0.6545,-0.654,-0.654,-0.6537,-0.6533,-0.653,-0.6531,-0.6527,-0.6528,-0.6529,-0.6529,-0.653,-0.6515,-0.653,-0.653,-0.653,-0.653,-0.653,0,-0.6575,-0.6572,-0.6571,-0.6568,-0.6568,-0.6562,-0.656,-0.656,-0.656,-0.6557,-0.6556,-0.6555,-0.6554,-0.6549,-0.6548,-0.6549,-0.6546,-0.6548,-0.6548,-0.6548,-0.6534,-0.6533,-0.6551,-0.6551,-0.6551,-0.6551,-0.6551,-0.6551,-0.6583,-0.6585,-0.6582,-0.6583,-0.658,-0.658,-0.6579,-0.6577,-0.6575,-0.6574,-0.6574,-0.657,-0.6567,-0.6565,-0.6564,-0.6562,-0.6562,-0.6566,-0.6563,-0.6551,-0.6549,-0.6547,-0.6546,-0.6566,-0.6566,-0.6577,-0.6577,-0.6577]}]]